Location: *
(46.1866°S, 178.5290°W)
Time: 10:44:38
(UTC+00:00)

Okean O Rocket - Pass Details

Date: 19 May 2021
Orbit: 622 x 645 km, 98.2° (Epoch: 14 June)

Event Time Altitude Azimuth Distance (km) Brightness Sun altitude
Exits shadow 07:17:57 48° 293° (WNW) 858 2.5 -29.1°
Drops below altitude 10° 07:21:31 10° 329° (NNW) 2,056 4.5 -29.8°
Sets 07:23:45 0° 333° (NNW) 2,959 5.3 -30.1°
